Regional Weather Roundup
Issued by NWS Binghamton, NY

Home | Current Version | Previous Version | Text Only | Print | Product List | Glossary On
Versions: 1 2 3 4 5 6 7 8 9 10 11 12 13 14 15 16 17 18 19 20 21 22 23 24 25 26 27 28 29 30 31 32 33 34 35 36 37 38 39 40 41 42 43 44 45 46 47 48 49 50
000
ASUS41 KBGM 310710
RWRBGM
RWRBGM
BINGHAMTON REGIONAL WEATHER ROUNDUP
NATIONAL WEATHER SERVICE BINGHAMTON NY
200 AM EST SAT JAN 31 2015

Note: "fair" indicates few or no clouds below 12,000 feet with no
significant weather and/or obstructions to visibility.

* = Station(s) that does not report precipitation, such as rain,
snow, etc, also no thunder or fog.

!NYZ009-015>018-022>025-036-037-044>046-055>057-062-310800
...CENTRAL NEW YORK...

CITY           SKY/WX    TMP DP  RH WIND       PRES   REMARKS
BINGHAMTON     MOCLDY     6  -1  73 NW16G30   30.08R WCI -12
CORTLAND       LGT SNOW   9   3  78 NW6       30.19R WCI  -1
DANSVILLE      CLOUDY     9   2  73 NW10      30.31S WCI  -5
ELMIRA         PTCLDY     8  -1  66 VRB5      30.24R WCI   0
ITHACA         NOT AVBL
HAMILTON       CLOUDY     1   5 100 N7        30.16  WCI -11
MONTICELLO     PTCLDY     9   0  66 NW16G26   30.00R WCI  -9
NORWICH        PTCLDY     1  -4  78 N8        30.16R WCI -12
ONEONTA        PTCLDY     0  -8  71 NW6       30.04R WCI -12
PENN YAN       PTCLDY     7  -1  70 W8        30.26R WCI  -6
ROME           CLEAR     -1  -9  68 W10       30.26R WCI -17
SIDNEY         MOCLDY     9   3  78 N5        30.14R WCI   0
SYRACUSE       LGT SNOW   3   1  91 N7        30.27R FOG     WCI  -9
$$

!PAZ038>040-043-044-047-048-072-310800
...NORTHEAST PENNSYLVANIA...

CITY           SKY/WX    TMP DP  RH WIND       PRES   REMARKS
HAZLETON       MOCLDY     9   0  66 MISG      30.11R
SCRANTON       CLOUDY    11  -1  58 NW17G33   30.15R WCI  -6
TOWANDA*       PTCLDY     9  -2  61 NW6       30.25R WCI  -1
$$
&&
KEY
WCI = WIND CHILL INDEX
VSB = VISIBILITY
HX  = HEAT INDEX
$$



USA.gov is the U.S. government's official web portal to all federal, state and local government web resources and services.